Voltar ao catálogo

STARLINK-35321

AtivoComunicaçõesVLEO
NORAD 66074·PAYLOAD·🇺🇸 United States

Lançado Oct 19, 2025 de Cape Canaveral Space Force Station

Loading…

Próximas Passagens (próximas 24 horas)

TLE

AtualizadoSource: CelesTrak SupGP

Época: Sep 15, 2026, 02:38 UTC

1 66074C 25235S   26258.11020833 -.00016591  00000+0 -49024-3 0  2584
2 66074  53.1592  84.7376 0001163  82.4348 233.8471 15.34396268    11

Acompanhe STARLINK-35321 em tempo real com AllMySat

Download on the App Store